QLK269 YSSY-YMML

Flight info

Callsign QLK269
Flight time 1h 18m
Altitude 38000
Route DCT TESAT H65 LEECE Q29 ML DCT
Aircraft A320/M-SDE3FGHIRWY/LB1

Departure

Time 2026-05-04 09:14
Airport Sydney Kingsford Smith International Airport (YSSY)

Arrival

Time 2026-05-04 10:32
Airport Melbourne Airport (YMML)
Time Latitude Longitude Altitude Speed Heading
2026-05-04 08:51 -33.93462 151.17685 30 ft 0 kts 100°
2026-05-04 09:01 -33.93454 151.17632 30 ft 2 kts 100°
2026-05-04 09:01 -33.93451 151.17612 30 ft 2 kts 130°
2026-05-04 09:01 -33.93438 151.17602 30 ft 2 kts 192°
2026-05-04 09:01 -33.93435 151.17603 30 ft 0 kts 192°
2026-05-04 09:03 -33.93446 151.17600 30 ft 3 kts 192°
2026-05-04 09:03 -33.93486 151.17591 28 ft 9 kts 186°
2026-05-04 09:04 -33.93560 151.17605 28 ft 12 kts 167°
2026-05-04 09:04 -33.93626 151.17624 28 ft 9 kts 162°
2026-05-04 09:04 -33.93684 151.17664 27 ft 12 kts 153°
2026-05-04 09:04 -33.93796 151.17699 19 ft 20 kts 168°
2026-05-04 09:05 -33.93903 151.17776 21 ft 15 kts 155°
2026-05-04 09:05 -33.94008 151.17809 23 ft 16 kts 168°
2026-05-04 09:05 -33.94125 151.17839 24 ft 18 kts 168°
2026-05-04 09:05 -33.94255 151.17873 26 ft 20 kts 168°
2026-05-04 09:06 -33.94392 151.17908 25 ft 15 kts 168°
2026-05-04 09:07 -33.95080 151.18226 25 ft 18 kts 78°
2026-05-04 09:08 -33.95055 151.18371 26 ft 15 kts 78°
2026-05-04 09:08 -33.95046 151.18422 29 ft 0 kts 78°
2026-05-04 09:08 -33.95046 151.18423 26 ft 1 kts 78°
2026-05-04 09:09 -33.95042 151.18450 26 ft 4 kts 85°
2026-05-04 09:09 -33.95052 151.18492 27 ft 6 kts 122°
2026-05-04 09:09 -33.95094 151.18523 27 ft 8 kts 152°
2026-05-04 09:09 -33.95146 151.18576 26 ft 11 kts 137°
2026-05-04 09:10 -33.95213 151.18649 29 ft 14 kts 137°
2026-05-04 09:10 -33.95304 151.18715 29 ft 17 kts 160°
2026-05-04 09:10 -33.95431 151.18752 23 ft 21 kts 167°
2026-05-04 09:10 -33.95584 151.18792 24 ft 23 kts 168°
2026-05-04 09:11 -33.95745 151.18835 27 ft 25 kts 167°
2026-05-04 09:11 -33.95918 151.18879 27 ft 26 kts 168°
2026-05-04 09:11 -33.96105 151.18928 26 ft 30 kts 167°
2026-05-04 09:11 -33.96314 151.18982 29 ft 32 kts 167°
2026-05-04 09:12 -33.96543 151.19045 20 ft 32 kts 168°
2026-05-04 09:12 -33.96748 151.19075 19 ft 31 kts 181°
2026-05-04 09:14 -33.96067 151.19118 29 ft 128 kts 348°
2026-05-04 09:14 -33.95087 151.18861 280 ft 152 kts 350°
2026-05-04 09:14 -33.94042 151.18882 925 ft 154 kts 22°
2026-05-04 09:14 -33.93188 151.19643 1625 ft 157 kts 48°
2026-05-04 09:15 -33.92780 151.20880 2212 ft 171 kts 78°
2026-05-04 09:15 -33.92979 151.22391 2596 ft 197 kts 106°
2026-05-04 09:15 -33.93545 151.23958 3102 ft 206 kts 101°
2026-05-04 09:15 -33.93732 151.25633 3772 ft 201 kts 83°
2026-05-04 09:17 -33.93248 151.44718 5006 ft 337 kts 84°
2026-05-04 09:18 -33.93175 151.47546 5006 ft 337 kts 84°
2026-05-04 09:18 -33.93336 151.50392 5201 ft 351 kts 100°
2026-05-04 09:18 -33.94219 151.53117 5964 ft 363 kts 117°
2026-05-04 09:18 -33.95849 151.55538 6436 ft 381 kts 139°
2026-05-04 09:19 -33.98136 151.57184 7144 ft 386 kts 158°
2026-05-04 09:19 -34.00729 151.58027 7937 ft 387 kts 176°
2026-05-04 09:19 -34.03395 151.57910 8697 ft 384 kts 195°
2026-05-04 09:19 -34.05848 151.56714 9445 ft 378 kts 217°
2026-05-04 09:20 -34.07748 151.54584 10159 ft 373 kts 236°
2026-05-04 09:20 -34.09341 151.52096 10859 ft 376 kts 237°
2026-05-04 09:20 -34.10940 151.49581 11530 ft 380 kts 237°
2026-05-04 09:20 -34.12556 151.47041 12207 ft 384 kts 237°
2026-05-04 09:21 -34.14193 151.44474 12884 ft 388 kts 237°
2026-05-04 09:21 -34.15850 151.41886 13551 ft 392 kts 237°
2026-05-04 09:21 -34.17527 151.39273 14191 ft 396 kts 237°
2026-05-04 09:21 -34.19225 151.36624 14789 ft 400 kts 237°
2026-05-04 09:22 -34.20914 151.33990 15393 ft 403 kts 237°
2026-05-04 09:22 -34.22660 151.31272 16046 ft 406 kts 237°
2026-05-04 09:22 -34.24394 151.28569 16688 ft 409 kts 237°
2026-05-04 09:22 -34.26117 151.25880 17308 ft 412 kts 237°
2026-05-04 09:23 -34.27872 151.23128 17927 ft 415 kts 237°
2026-05-04 09:23 -34.29640 151.20352 18499 ft 418 kts 237°
2026-05-04 09:23 -34.31422 151.17553 19042 ft 421 kts 237°
2026-05-04 09:23 -34.33220 151.14734 19594 ft 423 kts 238°
2026-05-04 09:25 -34.45937 150.94729 23820 ft 413 kts 239°
2026-05-04 09:25 -34.47668 150.92024 24842 ft 400 kts 240°
2026-05-04 09:26 -34.49338 150.89394 25470 ft 398 kts 240°
2026-05-04 09:26 -34.51042 150.86687 26012 ft 399 kts 241°
2026-05-04 09:26 -34.52723 150.84004 26472 ft 401 kts 241°
2026-05-04 09:26 -34.54396 150.81331 26908 ft 404 kts 241°
2026-05-04 09:27 -34.56097 150.78614 27331 ft 406 kts 241°
2026-05-04 09:27 -34.57793 150.75857 27730 ft 408 kts 242°
2026-05-04 09:27 -34.59478 150.73072 28153 ft 411 kts 242°
2026-05-04 09:27 -34.61162 150.70262 28560 ft 413 kts 242°
2026-05-04 09:28 -34.62852 150.67431 28984 ft 415 kts 242°
2026-05-04 09:28 -34.64553 150.64581 29389 ft 418 kts 242°
2026-05-04 09:28 -34.66264 150.61714 29800 ft 421 kts 242°
2026-05-04 09:28 -34.67995 150.58825 30191 ft 424 kts 242°
2026-05-04 09:29 -34.69735 150.55928 30544 ft 425 kts 242°
2026-05-04 09:29 -34.71485 150.53020 30918 ft 427 kts 242°
2026-05-04 09:29 -34.73240 150.50106 31285 ft 428 kts 242°
2026-05-04 09:29 -34.75002 150.47182 31649 ft 429 kts 242°
2026-05-04 09:30 -34.76765 150.44255 32164 ft 426 kts 242°
2026-05-04 09:30 -34.78504 150.41366 32722 ft 422 kts 242°
2026-05-04 09:30 -34.80227 150.38494 33252 ft 419 kts 243°
2026-05-04 09:30 -34.81937 150.35631 33794 ft 416 kts 243°
2026-05-04 09:31 -34.83635 150.32780 34297 ft 413 kts 243°
2026-05-04 09:31 -34.85315 150.29954 34731 ft 411 kts 243°
2026-05-04 09:31 -34.86989 150.27138 35122 ft 410 kts 243°
2026-05-04 09:31 -34.88661 150.24327 35500 ft 410 kts 243°
2026-05-04 09:32 -34.90310 150.21553 35864 ft 409 kts 243°
2026-05-04 09:32 -34.91434 150.19660 36112 ft 408 kts 243°
2026-05-04 09:34 -35.02999 150.00133 38051 ft 406 kts 243°
2026-05-04 09:34 -35.04649 149.97331 38053 ft 405 kts 243°
2026-05-04 09:34 -35.07947 149.91757 38058 ft 405 kts 243°
2026-05-04 09:35 -35.11247 149.86170 38056 ft 405 kts 243°
2026-05-04 09:35 -35.14535 149.80570 38062 ft 406 kts 243°
2026-05-04 09:37 -35.27715 149.58088 38102 ft 408 kts 243°
2026-05-04 09:38 -35.31009 149.52451 38088 ft 407 kts 243°
2026-05-04 09:38 -35.34302 149.46789 38094 ft 408 kts 243°
2026-05-04 09:39 -35.37592 149.41126 38093 ft 408 kts 243°
2026-05-04 09:39 -35.40886 149.35455 38097 ft 408 kts 243°
2026-05-04 09:40 -35.44180 149.29771 38117 ft 409 kts 243°
2026-05-04 09:40 -35.47474 149.24087 38110 ft 409 kts 243°
2026-05-04 09:42 -35.60584 149.01336 38118 ft 408 kts 243°
2026-05-04 09:43 -35.63863 148.95631 38104 ft 409 kts 243°
2026-05-04 09:43 -35.67139 148.89919 38102 ft 408 kts 243°
2026-05-04 09:44 -35.70407 148.84201 38100 ft 409 kts 243°
2026-05-04 09:46 -35.83409 148.61392 38091 ft 408 kts 243°
2026-05-04 09:46 -35.86659 148.55659 38113 ft 408 kts 243°
2026-05-04 09:47 -35.89904 148.49931 38100 ft 407 kts 243°
2026-05-04 09:49 -36.02832 148.26927 38108 ft 409 kts 243°
2026-05-04 09:51 -36.14180 148.06627 38090 ft 411 kts 243°
2026-05-04 09:51 -36.17438 148.00803 38087 ft 411 kts 243°
2026-05-04 09:52 -36.20701 147.94982 38093 ft 412 kts 243°
2026-05-04 09:52 -36.23937 147.89173 38109 ft 411 kts 243°
2026-05-04 09:53 -36.27171 147.83327 38112 ft 411 kts 243°
2026-05-04 09:53 -36.30413 147.77473 38103 ft 412 kts 243°
2026-05-04 09:54 -36.33665 147.71626 38093 ft 412 kts 243°
2026-05-04 09:54 -36.36911 147.65757 38090 ft 412 kts 243°
2026-05-04 09:55 -36.40145 147.59879 38092 ft 413 kts 243°
2026-05-04 09:55 -36.43377 147.53990 38095 ft 412 kts 242°
2026-05-04 09:56 -36.46589 147.48134 38089 ft 412 kts 242°
2026-05-04 09:56 -36.49823 147.42247 38078 ft 412 kts 242°
2026-05-04 09:57 -36.53053 147.36359 38088 ft 412 kts 243°
2026-05-04 09:57 -36.56267 147.30465 38093 ft 412 kts 243°
2026-05-04 09:58 -36.59481 147.24564 38084 ft 411 kts 243°
2026-05-04 09:58 -36.62693 147.18667 38079 ft 411 kts 243°
2026-05-04 10:00 -36.74008 146.97796 37056 ft 418 kts 243°
2026-05-04 10:00 -36.75634 146.94800 36798 ft 416 kts 243°
2026-05-04 10:02 -36.86713 146.74219 33958 ft 403 kts 245°
2026-05-04 10:04 -36.97338 146.54361 30668 ft 385 kts 247°
2026-05-04 10:04 -36.98818 146.51585 30235 ft 383 kts 247°
2026-05-04 10:04 -37.00296 146.48817 29763 ft 381 kts 247°
2026-05-04 10:04 -37.01760 146.46077 29357 ft 377 kts 247°
2026-05-04 10:05 -37.03212 146.43360 28950 ft 374 kts 247°
2026-05-04 10:05 -37.04651 146.40658 28565 ft 371 kts 247°
2026-05-04 10:05 -37.06074 146.37975 28208 ft 369 kts 247°
2026-05-04 10:05 -37.07488 146.35297 27779 ft 368 kts 247°
2026-05-04 10:06 -37.08898 146.32626 27386 ft 367 kts 246°
2026-05-04 10:06 -37.10305 146.29966 27006 ft 365 kts 246°
2026-05-04 10:06 -37.11708 146.27315 26585 ft 364 kts 245°
2026-05-04 10:08 -37.25964 146.20042 24250 ft 398 kts 192°
2026-05-04 10:08 -37.28706 146.19618 23881 ft 395 kts 192°
2026-05-04 10:08 -37.31423 146.19181 23502 ft 392 kts 192°
2026-05-04 10:08 -37.34118 146.18735 23047 ft 389 kts 192°
2026-05-04 10:09 -37.36756 146.18290 22610 ft 386 kts 192°
2026-05-04 10:09 -37.39408 146.17846 22182 ft 382 kts 191°
2026-05-04 10:09 -37.42025 146.17385 21756 ft 378 kts 192°
2026-05-04 10:09 -37.44615 146.16922 21336 ft 374 kts 192°
2026-05-04 10:10 -37.47182 146.16455 20903 ft 370 kts 192°
2026-05-04 10:10 -37.49713 146.15999 20508 ft 366 kts 192°
2026-05-04 10:10 -37.52229 146.15546 20101 ft 363 kts 192°
2026-05-04 10:10 -37.54722 146.15098 19694 ft 361 kts 192°
2026-05-04 10:11 -37.57198 146.14655 19298 ft 358 kts 192°
2026-05-04 10:11 -37.59662 146.14208 18914 ft 356 kts 192°
2026-05-04 10:11 -37.62106 146.13772 18522 ft 353 kts 192°
2026-05-04 10:11 -37.64489 146.13265 18131 ft 347 kts 200°
2026-05-04 10:12 -37.66641 146.12040 17702 ft 335 kts 219°
2026-05-04 10:12 -37.68315 146.10089 17272 ft 323 kts 237°
2026-05-04 10:12 -37.69399 146.07664 16856 ft 313 kts 254°
2026-05-04 10:12 -37.69849 146.05022 16483 ft 304 kts 270°
2026-05-04 10:13 -37.69679 146.02411 16177 ft 295 kts 285°
2026-05-04 10:13 -37.68953 146.00019 15822 ft 291 kts 299°
2026-05-04 10:13 -37.67762 145.97964 15427 ft 290 kts 308°
2026-05-04 10:13 -37.66468 145.96018 15027 ft 289 kts 308°
2026-05-04 10:14 -37.65178 145.94078 14635 ft 288 kts 308°
2026-05-04 10:14 -37.63896 145.92151 14339 ft 284 kts 308°
2026-05-04 10:16 -37.55440 145.79403 12547 ft 265 kts 308°
2026-05-04 10:16 -37.54260 145.77631 12274 ft 264 kts 308°
2026-05-04 10:16 -37.53070 145.75843 12016 ft 268 kts 309°
2026-05-04 10:16 -37.51876 145.74045 11750 ft 267 kts 308°
2026-05-04 10:17 -37.50686 145.72255 11499 ft 266 kts 309°
2026-05-04 10:17 -37.49497 145.70470 11255 ft 264 kts 309°
2026-05-04 10:19 -37.49420 145.56339 9738 ft 275 kts 239°
2026-05-04 10:19 -37.50553 145.54394 9606 ft 276 kts 239°
2026-05-04 10:19 -37.51683 145.52450 9474 ft 274 kts 239°
2026-05-04 10:19 -37.52806 145.50516 9337 ft 272 kts 239°
2026-05-04 10:20 -37.53920 145.48591 9202 ft 271 kts 239°
2026-05-04 10:20 -37.55028 145.46672 9079 ft 271 kts 238°
2026-05-04 10:20 -37.56137 145.44753 8948 ft 269 kts 239°
2026-05-04 10:20 -37.57237 145.42854 8822 ft 268 kts 239°
2026-05-04 10:21 -37.58334 145.40957 8684 ft 268 kts 239°
2026-05-04 10:21 -37.59429 145.39060 8560 ft 267 kts 239°
2026-05-04 10:21 -37.60525 145.37165 8420 ft 267 kts 239°
2026-05-04 10:21 -37.61250 145.35910 8334 ft 267 kts 240°
2026-05-04 10:22 -37.63801 145.31501 8033 ft 266 kts 240°
2026-05-04 10:22 -37.64876 145.29642 7908 ft 265 kts 240°
2026-05-04 10:22 -37.65965 145.27756 7773 ft 266 kts 240°
2026-05-04 10:23 -37.67052 145.25868 7648 ft 265 kts 239°
2026-05-04 10:23 -37.68132 145.23994 7529 ft 262 kts 239°
2026-05-04 10:25 -37.75139 145.11806 6701 ft 243 kts 239°
2026-05-04 10:25 -37.76122 145.10101 6568 ft 236 kts 239°
2026-05-04 10:25 -37.77081 145.08431 6451 ft 234 kts 240°
2026-05-04 10:25 -37.78046 145.06741 6057 ft 239 kts 240°
2026-05-04 10:26 -37.79007 145.05060 5640 ft 233 kts 240°
2026-05-04 10:26 -37.79953 145.03410 5143 ft 230 kts 240°
2026-05-04 10:26 -37.80875 145.01776 4999 ft 226 kts 244°
2026-05-04 10:26 -37.81505 145.00021 4994 ft 220 kts 257°
2026-05-04 10:27 -37.81847 144.98119 4998 ft 219 kts 261°
2026-05-04 10:27 -37.82165 144.96274 4709 ft 217 kts 260°
2026-05-04 10:27 -37.82492 144.94415 4116 ft 217 kts 261°
2026-05-04 10:27 -37.82770 144.92546 3641 ft 212 kts 263°
2026-05-04 10:28 -37.82993 144.90777 3439 ft 195 kts 264°
2026-05-04 10:28 -37.83190 144.89152 3320 ft 181 kts 265°
2026-05-04 10:28 -37.83093 144.87648 3215 ft 168 kts 295°
2026-05-04 10:28 -37.82238 144.86665 3034 ft 175 kts 335°
2026-05-04 10:29 -37.81023 144.86390 2803 ft 178 kts 343°
2026-05-04 10:29 -37.79796 144.86171 2554 ft 177 kts 342°
2026-05-04 10:29 -37.78578 144.85954 2330 ft 175 kts 343°
2026-05-04 10:29 -37.77389 144.85741 2095 ft 171 kts 344°
2026-05-04 10:30 -37.76267 144.85542 1847 ft 153 kts 344°
2026-05-04 10:30 -37.75265 144.85363 1654 ft 137 kts 343°
2026-05-04 10:30 -37.74349 144.85194 1480 ft 130 kts 343°
2026-05-04 10:30 -37.73466 144.85028 1303 ft 129 kts 348°
2026-05-04 10:31 -37.72582 144.84860 1123 ft 131 kts 351°
2026-05-04 10:31 -37.71685 144.84690 960 ft 128 kts 353°
2026-05-04 10:32 -37.67264 144.83853 377 ft 25 kts 352°
2026-05-04 10:33 -37.67106 144.83830 383 ft 21 kts 359°
2026-05-04 10:33 -37.66986 144.83848 386 ft 17 kts 12°
2026-05-04 10:33 -37.66899 144.83883 390 ft 7 kts 22°
2026-05-04 10:33 -37.66860 144.83903 391 ft 0 kts 22°
2026-05-04 10:35 -37.66857 144.83905 391 ft 1 kts 22°
2026-05-04 10:35 -37.66838 144.83914 391 ft 6 kts 22°
2026-05-04 10:35 -37.66779 144.83945 393 ft 10 kts 23°
2026-05-04 10:35 -37.66727 144.84015 393 ft 12 kts 66°
2026-05-04 10:36 -37.66709 144.84134 395 ft 15 kts 82°
2026-05-04 10:36 -37.66693 144.84277 397 ft 18 kts 81°
2026-05-04 10:36 -37.66672 144.84442 398 ft 20 kts 81°
2026-05-04 10:36 -37.66650 144.84626 401 ft 22 kts 82°
2026-05-04 10:37 -37.66618 144.84779 399 ft 17 kts 47°
2026-05-04 10:37 -37.66544 144.84884 405 ft 17 kts 78°
2026-05-04 10:37 -37.66531 144.85014 406 ft 12 kts 96°
2026-05-04 10:37 -37.66604 144.85064 403 ft 13 kts 173°